Orbital Elements at Epoch 2459200.5 (2020-Dec-17.0) TDB
Reference: JPL 18 (heliocentric ecliptic J2000)
Element | Value | Uncertainty (1-sigma) | Units |
e | .127337950639136 | 5.2857e-08 | |
a | 2.248089877954139 | 9.3272e-09 | au |
q | 1.961822720042874 | 1.176e-07 | au |
i | 6.912584061674494 | 5.5674e-06 | deg |
node | 172.6162523528486 | 3.0924e-05 | deg |
peri | 180.3634957906328 | 3.4487e-05 | deg |
M | 101.8429981196116 | 1.6478e-05 | deg |
tp | 2458852.204705384086 (2020-Jan-03.70470538) | 5.5494e-05 | TDB |
period | 1231.172573243243 3.37 | 7.6621e-06 2.098e-08 | d yr |
n | .2924041745436729 | 1.8198e-09 | deg/d |
Q | 2.534357035865404 | 1.0515e-08 | au |
|
| | Orbit Determination Parameters
Additional Information
|